Location: Krakow
(50.0212°N, 19.9423°E)
Time: 21:19:19
(UTC+02:00)

BUGSAT 1 - Pass Details

Date: 25 April 2024
Orbit: 531 x 580 km, 98.1° (Epoch: 23 May)

Event Time Altitude Azimuth Distance (km) Brightness Sun altitude
Rises 20:31:07 0° 181° (S) 2,716 ? -6.7°
Reaches altitude 10° 20:33:18 10° 188° (S) 1,836 ? -7.0°
Maximum altitude 20:37:06 44° 261° (W) 793 ? -7.5°
Drops below altitude 10° 20:41:00 10° 334° (NNW) 1,881 ? -8.0°
Sets 20:43:15 0° 341° (NNW) 2,792 ? -8.3°
